[[{"header":{"parameterUnit":"m.s-1","parameterCategory":1,"la1":30.2991,"la2":30.254,"lo1":-89.0895,"lo2":-89.0444,"dy":0.0017,"dx":0.0017,"nx":28,"ny":28,"refTime":"2023-08-13T09:00:00:Z","depth":0,"parameterNumber":2,"parameterNumberName":"U-component_of_WINDS"},"data":[0,0,0,0,0,0,0,0,0,0,0,0,0,0,0,0,0,0,0,0,0,0,0,0,0,0,0,0,0,0,0,0,0,0,0,0,0,0,0,0,0,0,0,0,0,0,0,0,0,0,0,0,0,0,0,0,0,0,4.5744,4.5744,0,4.5771,4.5771,4.5772,4.5669,4.5666,4.5663,4.566,4.5687,4.5691,4.5694,0,0,0,0,0,0,0,0,0,0,0,0,0,4.5601,4.5604,4.5744,4.5744,4.5745,4.5771,4.5771,4.5772,4.5669,4.5666,4.5662,4.5659,4.5686,4.569,4.5695,0,0,0,0,0,0,0,0,0,0,0,0,0,4.5649,4.5605,4.5744,4.5697,4.5693,4.5771,4.5771,4.5772,4.567,4.5666,4.5661,4.5657,4.5685,4.569,4.5695,4.582,0,0,4.5712,4.5714,0,0,0,0,0,0,0,0,4.5647,4.5655,4.5703,4.57,4.5696,4.5712,4.5731,4.5788,4.5671,4.5679,4.566,4.5655,4.5699,4.5703,4.5718,4.5821,4.5823,4.5712,4.5715,4.5718,4.5719,0,0,0,0,0,0,0,4.5643,4.5653,4.5755,4.5704,4.57,4.5673,4.5675,4.5741,4.5714,4.5678,4.567,4.5675,4.5696,4.5713,4.5718,4.5823,4.5712,4.5717,4.572,4.5722,4.6025,4.603,0,0,0,0,0,0,4.5646,4.5651,4.5754,4.5755,4.5659,4.568,4.5682,4.5711,4.5713,4.5709,4.5679,4.567,4.5706,4.5712,4.5719,4.5861,4.5718,4.5723,4.5726,4.6021,4.6026,4.6032,0,0,0,0,0,0,4.5644,4.5657,4.5753,4.5701,4.5711,4.5687,4.5721,4.5714,4.5731,4.5714,4.5709,4.5701,4.5703,4.5711,4.5795,4.5861,4.5725,4.573,4.6015,4.6022,4.6029,4.615,0,0,0,0,0,0,4.564,4.5656,4.5704,4.5703,4.5714,4.5829,4.5725,4.5718,4.5741,4.573,4.5734,4.573,4.57,4.5787,4.58,4.5866,4.5734,4.6009,4.6018,4.6027,4.614,4.616,4.6178,0,0,0,0,0,4.5635,4.5738,4.5707,4.572,4.5774,4.5833,4.584,4.5803,4.5747,4.5794,4.5782,4.573,4.5853,4.5797,4.581,4.5879,4.6004,4.6016,4.6026,4.6131,4.6156,4.6178,0,0,0,0,0,0,4.5748,4.5737,4.5703,4.5808,4.5822,4.5816,4.5874,4.5832,4.5862,4.585,4.5804,4.5805,4.5896,4.5896,4.5834,4.5997,4.5918,4.5933,4.5994,4.6017,4.6036,4.6033,4.5739,0,0,0,0,0,4.5786,4.5835,4.5823,4.5917,4.5926,4.5899,4.5924,4.5894,4.5907,4.5912,4.5907,4.5921,4.5962,4.599,4.6028,4.614,4.6138,4.6194,4.6213,4.6229,4.624,4.6296,4.632,4.6067,4.6067,4.6067,0,0,4.5863,4.5863,4.5897,4.5939,4.5947,4.5998,4.5905,4.5964,4.6,4.5921,4.5998,4.5996,4.6008,4.6106,4.6148,4.6108,4.631,4.6243,4.6255,4.6258,4.631,4.6334,4.6355,4.6075,4.6073,4.6072,0,0,4.6028,4.6035,4.6112,4.6121,4.6133,4.6114,4.6133,4.6133,4.6127,4.6205,4.6145,4.6188,4.6261,4.6271,4.6286,4.6454,4.6405,4.6468,4.6566,4.6621,4.6641,4.6658,4.6714,4.6735,4.648,4.648,4.6481,0,4.6122,4.6197,4.6157,4.6219,4.6238,4.6168,4.6244,4.6255,4.628,4.6294,4.6249,4.6336,4.6341,4.6437,4.6478,4.6494,4.6511,4.6465,4.6641,4.6658,4.6674,4.6726,4.6748,4.6487,4.6487,4.6486,4.6485,0,4.631,4.6363,4.6424,4.6447,4.6473,4.6543,4.6511,4.6543,4.6511,4.6497,4.6574,4.6577,4.6611,4.6633,4.6603,4.6725,4.6699,4.6649,4.6568,4.6705,4.6754,4.6774,4.6498,4.6495,4.6493,4.6491,0,0,4.6547,4.6546,4.6568,4.6576,4.6584,4.6624,4.6689,4.6722,4.6748,4.6768,4.6819,4.6882,4.6834,4.6851,4.6821,4.687,4.6998,4.6813,4.6812,4.6844,4.7128,4.7163,4.7188,4.6967,4.6971,4.6974,4.7126,0,4.6706,4.6816,4.6781,4.6892,4.6938,4.6872,4.6928,4.6939,4.6927,4.6964,4.6951,4.6995,4.6931,4.694,4.6985,4.6973,4.7054,4.6962,4.7012,4.7014,4.7007,4.7214,4.7251,4.7394,4.7145,4.7148,4.715,0,4.6906,4.6931,4.7047,4.7043,4.7061,4.7112,4.7138,4.7176,4.7185,4.7173,4.7191,4.7151,4.7213,4.7134,4.7217,4.7156,4.7174,4.7171,4.7176,4.7176,4.7088,4.7216,4.7439,4.7459,4.7181,4.7178,4.7176,0,4.7062,4.7125,4.7201,4.7211,4.721,4.7246,4.7248,4.7253,4.7274,4.7298,4.731,4.7341,4.7357,4.7382,4.735,4.7297,4.7437,4.7356,4.7426,4.7427,4.7456,4.7454,4.7682,4.7475,4.7475,4.7474,4.7474,0,4.7241,4.7313,4.727,4.7316,4.7394,4.7353,4.7432,4.7426,4.7431,4.7473,4.742,4.7462,4.7419,4.7457,4.7433,4.7503,4.7512,4.7502,4.7494,4.7505,4.7506,4.7514,4.7502,4.748,4.7479,4.7477,4.7477,0,4.7427,4.7401,4.7479,4.7471,4.7471,4.7529,4.7521,4.7563,4.7548,4.7603,4.7613,4.7589,4.763,4.7602,4.7643,4.7627,4.7718,4.7698,4.7714,4.7707,4.7777,4.7769,4.8015,4.8044,4.7823,4.7825,4.7827,0,4.7541,4.7594,4.7592,4.7616,4.7621,4.7662,4.7682,4.7644,4.7668,4.7682,4.7721,4.7758,4.7784,4.7852,4.7838,4.7869,4.7847,4.7931,4.7851,4.7858,4.7843,4.7838,4.7842,4.7946,4.7948,4.7951,4.7952,0,4.7744,4.7729,4.7761,4.7788,4.7814,4.7834,4.7849,4.7873,4.7834,4.7863,4.7903,4.7924,4.7965,4.8001,4.8026,4.8026,4.7982,4.7978,4.7995,4.8004,4.8009,4.8003,4.7754,4.7972,4.797,4.7968,4.7967,4.7966,4.7895,4.7938,4.7941,4.7978,4.7986,4.8001,4.8038,4.8027,4.806,4.809,4.8066,4.8113,4.8119,4.8148,4.8154,4.819,4.8155,4.8181,4.8187,4.8193,4.8201,4.8007,4.8195,4.8195,4.8194,4.8194,4.8193,0,4.8092,4.8091,4.8125,4.8147,4.8175,4.8132,4.8147,4.8173,4.8215,4.8225,4.8251,4.8296,4.833,4.8318,4.8348,4.8379,4.8359,4.8388,4.8383,4.8383,4.8232,4.8212,4.8403,4.8403,4.8403,4.8403,4.8403,4.8403,4.8197,4.8266,4.8251,4.8322,4.832,4.8366,4.8377,4.839,4.8397,4.8449,4.8477,4.8469,4.8469,4.8498,4.8526,4.8522,4.8534,4.8569,4.8557,4.8415,4.8394,4.8374,4.8355,4.8573,4.8573,4.8704,4.8705,4.8706]},{"header":{"parameterUnit":"m.s-1","parameterCategory":1,"la1":30.2991,"la2":30.254,"lo1":-89.0895,"lo2":-89.0444,"dy":0.0017,"dx":0.0017,"nx":28,"ny":28,"refTime":"2023-08-13T09:00:00:Z","depth":0,"parameterNumber":3,"parameterNumberName":"V-component_of_WINDS"},"data":[0,0,0,0,0,0,0,0,0,0,0,0,0,0,0,0,0,0,0,0,0,0,0,0,0,0,0,0,0,0,0,0,0,0,0,0,0,0,0,0,0,0,0,0,0,0,0,0,0,0,0,0,0,0,0,0,0,0,4.2714,4.2716,0,4.2834,4.2835,4.2836,4.2827,4.2826,4.2824,4.2822,4.2941,4.2946,4.2951,0,0,0,0,0,0,0,0,0,0,0,0,0,4.2475,4.2479,4.2714,4.2716,4.2717,4.2833,4.2835,4.2837,4.2828,4.2826,4.2823,4.2821,4.294,4.2945,4.2951,0,0,0,0,0,0,0,0,0,0,0,0,0,4.2585,4.2481,4.2714,4.2727,4.2729,4.2833,4.2835,4.2837,4.2828,4.2826,4.2823,4.282,4.2938,4.2945,4.2952,4.305,0,0,4.2974,4.2977,0,0,0,0,0,0,0,0,4.2578,4.2593,4.2724,4.2726,4.2729,4.2813,4.2794,4.2908,4.2829,4.2791,4.2822,4.2819,4.29,4.2911,4.2939,4.3055,4.306,4.2975,4.2979,4.2982,4.2984,0,0,0,0,0,0,0,4.2571,4.2588,4.2761,4.2725,4.2729,4.2725,4.2738,4.2816,4.2859,4.2794,4.2793,4.2808,4.2901,4.2932,4.2941,4.3062,4.2974,4.2981,4.2985,4.2988,4.3262,4.3265,0,0,0,0,0,0,4.2561,4.2582,4.2758,4.2765,4.2646,4.2732,4.2746,4.2789,4.2858,4.2866,4.281,4.2807,4.2921,4.2933,4.2946,4.3063,4.2982,4.2989,4.2993,4.3259,4.3262,4.3266,0,0,0,0,0,0,4.2556,4.2577,4.2753,4.2673,4.2696,4.2739,4.2787,4.2792,4.2823,4.287,4.2877,4.2833,4.2919,4.2935,4.3023,4.3067,4.2992,4.2999,4.3255,4.326,4.3264,4.3299,0,0,0,0,0,0,4.2549,4.2575,4.2614,4.2674,4.27,4.283,4.2789,4.2797,4.2836,4.2833,4.2894,4.2902,4.2918,4.3013,4.3031,4.3075,4.3004,4.3252,4.3257,4.3263,4.3294,4.3304,4.3312,0,0,0,0,0,4.254,4.2618,4.2616,4.2637,4.2749,4.2833,4.2847,4.2866,4.2839,4.2877,4.2908,4.29,4.3059,4.3022,4.3042,4.3089,4.3249,4.3256,4.3262,4.329,4.3302,4.3312,0,0,0,0,0,0,4.2561,4.2627,4.2624,4.2725,4.2773,4.2831,4.288,4.2878,4.2934,4.2929,4.2949,4.2963,4.3051,4.3079,4.3036,4.3186,4.315,4.3161,4.3165,4.3177,4.3186,4.3176,4.301,0,0,0,0,0,4.2577,4.2641,4.2694,4.2778,4.2802,4.2837,4.2874,4.2884,4.2934,4.2955,4.2991,4.304,4.31,4.314,4.3199,4.3298,4.331,4.3341,4.335,4.3357,4.3366,4.3418,4.3432,4.3287,4.3287,4.3287,0,0,4.2612,4.2655,4.2694,4.2783,4.2822,4.2885,4.2854,4.2923,4.297,4.2965,4.305,4.3078,4.3134,4.3227,4.327,4.3253,4.3409,4.3366,4.3371,4.3376,4.3426,4.344,4.3452,4.3292,4.3291,4.329,0,0,4.2706,4.2746,4.2819,4.2859,4.2918,4.294,4.2957,4.3016,4.3034,4.312,4.3117,4.3172,4.3278,4.3316,4.335,4.3457,4.3451,4.3476,4.3523,4.3574,4.3585,4.3595,4.3632,4.3645,4.3484,4.3484,4.3485,0,4.2741,4.2838,4.2857,4.2926,4.2964,4.2963,4.3036,4.3072,4.3147,4.3173,4.3154,4.3284,4.3321,4.3423,4.3449,4.3476,4.3495,4.3468,4.3582,4.3593,4.3602,4.3637,4.3651,4.3487,4.3487,4.3486,4.3486,0,4.2876,4.2943,4.2995,4.3067,4.3111,4.3182,4.321,4.3252,4.3258,4.3282,4.3368,4.3412,4.3479,4.3504,4.3511,4.3606,4.3594,4.3578,4.3542,4.3618,4.3651,4.3665,4.3491,4.349,4.3489,4.3488,0,0,4.2987,4.3069,4.3087,4.3119,4.3184,4.3235,4.3305,4.3371,4.3405,4.3457,4.3514,4.3602,4.3588,4.3626,4.3636,4.3681,4.3761,4.366,4.3661,4.3675,4.3866,4.3876,4.3892,4.3757,4.376,4.3762,4.3861,0,4.3087,4.3211,4.323,4.3339,4.34,4.3399,4.3459,4.3504,4.3528,4.3582,4.3607,4.3669,4.3646,4.3669,4.3713,4.3742,4.3799,4.3735,4.3809,4.3811,4.3794,4.3909,4.3921,4.4012,4.3874,4.3876,4.3878,0,4.322,4.3275,4.339,4.3445,4.3471,4.3525,4.3586,4.3638,4.3688,4.3702,4.3744,4.3748,4.3818,4.378,4.3876,4.3832,4.3863,4.3881,4.3885,4.3892,4.3848,4.3917,4.4042,4.4055,4.3899,4.3897,4.3896,0,4.3287,4.339,4.3472,4.3499,4.3566,4.3603,4.3632,4.368,4.3718,4.377,4.3795,4.3855,4.3887,4.3933,4.3953,4.3923,4.4046,4.401,4.4058,4.4058,4.4083,4.4081,4.4213,4.4106,4.4106,4.4106,4.4105,0,4.3396,4.3466,4.3502,4.3553,4.363,4.365,4.3726,4.3753,4.3796,4.385,4.3853,4.3903,4.3927,4.398,4.3996,4.4072,4.4087,4.4099,4.4102,4.4098,4.4096,4.4118,4.4111,4.4109,4.4108,4.4108,4.4107,0,4.3483,4.3511,4.36,4.3655,4.367,4.3725,4.3771,4.3819,4.3842,4.391,4.3927,4.3963,4.4026,4.4051,4.4128,4.4138,4.4225,4.4224,4.4208,4.4208,4.4254,4.4249,4.4403,4.4424,4.4305,4.4306,4.4307,0,4.355,4.3604,4.3665,4.3701,4.3732,4.3791,4.3829,4.385,4.389,4.395,4.399,4.4053,4.4105,4.4205,4.4237,4.4295,4.4295,4.4345,4.4303,4.4297,4.4293,4.4289,4.4294,4.4352,4.4353,4.4354,4.4355,0,4.3665,4.3676,4.3732,4.3792,4.3838,4.3887,4.3934,4.3963,4.3991,4.4035,4.41,4.414,4.4218,4.428,4.4339,4.4368,4.4365,4.4368,4.4381,4.4377,4.4365,4.437,4.4227,4.4364,4.4363,4.4362,4.4362,4.4361,4.3743,4.379,4.384,4.3901,4.3939,4.3982,4.4029,4.4058,4.4113,4.4179,4.4187,4.4256,4.4303,4.4383,4.4414,4.4467,4.4453,4.4474,4.4479,4.4483,4.4485,4.4358,4.4478,4.4478,4.4477,4.4477,4.4477,0,4.3856,4.3888,4.3945,4.401,4.4058,4.4053,4.4104,4.4144,4.4205,4.425,4.43,4.4373,4.4433,4.4469,4.4529,4.4564,4.4564,4.4578,4.4575,4.4581,4.4495,4.4476,4.4577,4.4577,4.4577,4.4577,4.4577,4.4577,4.3921,4.4,4.4016,4.4112,4.4143,4.4211,4.4241,4.428,4.4315,4.4397,4.4447,4.4471,4.4511,4.4573,4.4627,4.4636,4.4657,4.4672,4.468,4.4598,4.4588,4.4578,4.456,4.4677,4.4677,4.4762,4.4762,4.4763]}]]